Location: ?????????
(41.2286°N, 23.0068°E)
Time: 08:57:56
(UTC+00:00)

ACS3 Solar Sail - Pass Details

Date: 08 November 2025
Orbit: 890 x 1003 km, 97.3° (Epoch: 04 December)

Event Time Altitude Azimuth Distance (km) Brightness Sun altitude
Rises 02:02:30 0° 10° (N) 3,538 4.9 -35.0°
Reaches altitude 10° 02:04:54 10° 10° (N) 2,604 4.2 -34.6°
Enters shadow 02:06:33 20° 9° (N) 1,979 3.5 -34.2°
